Location: Gro�bocka
(50.8204°N, 11.9702°E)
Time: 02:02:55
(UTC+00:00)

CSL-04 Rocket - Pass Details

Date: 29 October 2020
Orbit: 805 x 861 km, 98.9° (Epoch: 23 November)

Event Time Altitude Azimuth Distance (km) Brightness Sun altitude
Exits shadow 18:34:12 - 179° (S) 3,410 6.7 -26.1°
Reaches altitude 10° 18:36:37 10° 184° (S) 2,488 6.1 -26.5°
Maximum altitude 18:41:59 51° 260° (W) 1,074 4.5 -27.3°
Drops below altitude 10° 18:47:21 10° 336° (NNW) 2,481 6.6 -28.1°
Sets 18:49:47 0° 341° (NNW) 3,413 7.3 -28.5°
